George, South Africa

4:02 AM SAST on April 25, 2018 (GMT +0200)
George

Weather History for FAGG - April, 2015

Change the Weather History Date:

Thursday, April 23, 2015

  Actual Average Record
Temperature  
Mean Temperature 60 °F -  
Max Temperature 69 °F 68 °F 89 °F (2018)
Min Temperature 52 °F 50 °F 46 °F (2011)
Degree Days  
Heating Degree Days 4    
Growing Degree Days 10 (Base 50)    
Moisture  
Dew Point 55 °F    
Average Humidity 82    
Maximum Humidity 100    
Minimum Humidity 57    
Precipitation  
Precipitation 0.00 in - - ()
Sea Level Pressure  
Sea Level Pressure 30.23 in    
Wind  
Wind Speed 4 mph ()    
Max Wind Speed 10 mph    
Max Gust Speed -    
Visibility 7.4 miles    
Events      
Averages and records for this station are not official NWS values.
T = Trace of Precipitation, MM = Missing Value Source: Averaged Metar Reports

Daily Weather History Graph

Daily Weather History Graph

Search for Another Location

Airport or City:

Astronomy

Apr. 23, 2015 Rise Set
Actual Time 6:58 AM SAST 5:58 PM SAST
Civil Twilight 6:33 AM SAST 6:23 PM SAST
Nautical Twilight 6:04 AM SAST 6:53 PM SAST
Astronomical Twilight 5:34 AM SAST 7:22 PM SAST
Moon 11:29 AM SAST (4/23) 10:08 PM SAST (4/23)
Length of Visible Light 11h 50m
Length of Day
10h 59m
Waxing Crescent, 25% of the Moon is Illuminated
Apr 23
Waxing Crescent
Apr 26
First Quarter
May 4
Full
May 11
Last Quarter
May 18
New

Hourly Weather History & Observations

Time (SAST) Temp. Dew Point Humidity Pressure Visibility Wind Dir Wind Speed Gust Speed Precip Events Conditions
2:00 AM 53 °F 51 °F 92% 30.25 in - NNW 4.6 mph - -  
3:00 AM 53.6 °F 51.8 °F 94% 30.24 in 6.2 mi NW 5.8 mph - N/A   Partly Cloudy
4:00 AM 53.6 °F 51.8 °F 94% 30.24 in 6.2 mi West 3.5 mph - N/A   Overcast
5:00 AM 54 °F 52 °F 92% 30.25 in 12 mi NW 2.3 mph - -   Partly Cloudy
5:00 AM 53.6 °F 51.8 °F 94% 30.24 in 6.2 mi Variable 2.3 mph - N/A   Scattered Clouds
6:00 AM 55.4 °F 51.8 °F 88% 30.24 in 6.2 mi WSW 3.5 mph - N/A   Scattered Clouds
7:00 AM 53.6 °F 53.6 °F 100% 30.24 in 6.2 mi NNW 2.3 mph - N/A   Mostly Cloudy
8:00 AM 56 °F 54 °F 92% 30.28 in 12 mi NW 2.3 mph - -   Mostly Cloudy
8:00 AM 55.4 °F 53.6 °F 94% 30.27 in 6.2 mi NW 2.3 mph - N/A   Mostly Cloudy
9:00 AM 59.0 °F 55.4 °F 88% 30.27 in 6.2 mi NNW 3.5 mph - N/A   Mostly Cloudy
10:00 AM 62.6 °F 57.2 °F 82% 30.27 in 6.2 mi Variable 1.2 mph - N/A   Mostly Cloudy
11:00 AM 64 °F 56 °F 67% 30.29 in 12 mi SSE 3.5 mph - -   Mostly Cloudy
11:00 AM 64.4 °F 55.4 °F 73% 30.27 in 6.2 mi SSE 3.5 mph - N/A   Mostly Cloudy
12:00 PM 64.4 °F 57.2 °F 77% 30.27 in 6.2 mi SSE 5.8 mph - N/A   Mostly Cloudy
1:00 PM 66.2 °F 55.4 °F 68% 30.24 in 6.2 mi SE 8.1 mph - N/A   Scattered Clouds
2:00 PM 69 °F 57 °F 57% 30.20 in 12 mi ESE 9.2 mph - -   Partly Cloudy
2:00 PM 69.8 °F 57.2 °F 64% 30.21 in 6.2 mi ESE 9.2 mph - N/A   Scattered Clouds
3:00 PM 66.2 °F 55.4 °F 68% 30.18 in 6.2 mi ESE 10.4 mph - N/A   Scattered Clouds
4:00 PM 66.2 °F 55.4 °F 68% 30.18 in 6.2 mi ESE 10.4 mph - N/A   Partly Cloudy
5:00 PM 64 °F 55 °F 64% 30.19 in 12 mi ESE 9.2 mph - -   Scattered Clouds
5:00 PM 64.4 °F 53.6 °F 68% 30.18 in 6.2 mi ESE 10.4 mph - N/A   Partly Cloudy
6:00 PM 59.0 °F 53.6 °F 82% 30.18 in 6.2 mi ESE 6.9 mph - N/A   Partly Cloudy
7:00 PM 59.0 °F 57.2 °F 94% 30.21 in 6.2 mi SE 5.8 mph - N/A   Mostly Cloudy
9:00 PM 59.0 °F 57.2 °F 94% 30.21 in 6.2 mi East 5.8 mph - N/A   Overcast
10:00 PM 59.0 °F 57.2 °F 94% 30.21 in 6.2 mi East 4.6 mph - N/A   Overcast
11:00 PM 59.0 °F 57.2 °F 94% 30.21 in 6.2 mi ENE 5.8 mph - N/A   Overcast